Weather History for KPGD - April, 2013

Change the Weather History Date:

Monday, April 22, 2013

  Actual Average (KFMY) Record (KFMY)
Temperature  
Mean Temperature 76 °F 75 °F  
Max Temperature 86 °F 86 °F 94 °F (1944)
Min Temperature 68 °F 64 °F 47 °F (1910)
Degree Days  
Heating Degree Days 0 0  
Month to date heating degree days 0  
Since 1 July heating degree days 284  
Cooling Degree Days 11 10  
Month to date cooling degree days 184  
Year to date cooling degree days 545  
Growing Degree Days 26 (Base 50)    
Moisture  
Dew Point 66 °F    
Average Humidity 79    
Maximum Humidity 96    
Minimum Humidity 56    
Precipitation  
Precipitation 0.65 in 0.07 in 1.50 in (1959)
Month to date precipitation 1.63  
Year to date precipitation 8.60  
Sea Level Pressure  
Sea Level Pressure 30.05 in    
Wind  
Wind Speed 6 mph (NE)    
Max Wind Speed 22 mph    
Max Gust Speed 28 mph    
Visibility 10 miles    
Events Rain    
T = Trace of Precipitation, MM = Missing Value Source: NWS Daily Summary

Daily Weather History Graph

Daily Weather History Graph

Search for Another Location

Airport or City:

Trip Planner

Search our weather history database for the weather conditions in past years. The results will help you decide how hot, cold, wet, or windy it might be!

Date:

Astronomy

Apr. 22, 2013 Rise Set
Actual Time 6:57 AM EDT 7:56 PM EDT
Civil Twilight 6:33 AM EDT 8:20 PM EDT
Nautical Twilight 6:04 AM EDT 8:48 PM EDT
Astronomical Twilight 5:35 AM EDT 9:17 PM EDT
Moon 4:59 PM EDT (4/22) 4:32 AM EDT (4/22)
Length of Visible Light 13h 47m
Length of Day
12h 58m
Waxing Gibbous, 87% of the Moon is Illuminated
Apr 22
Waxing Gibbous
Apr 25
Full
May 2
Last Quarter
May 9
New
May 18
First Quarter

Hourly Weather History & Observations

Time (EDT) Temp. Heat Index Dew Point Humidity Pressure Visibility Wind Dir Wind Speed Gust Speed Precip Events Conditions
12:53 AM 69.1 °F - 66.9 °F 93% 30.10 in 10.0 mi Calm Calm - 0.13 in Rain Light Rain
1:53 AM 69.1 °F - 68.0 °F 96% 30.10 in 8.0 mi WNW 3.5 mph - 0.10 in Rain Light Rain
2:53 AM 68.0 °F - 66.9 °F 96% 30.07 in 9.0 mi NE 3.5 mph - 0.09 in Rain Light Rain
3:53 AM 68.0 °F - 66.9 °F 96% 30.04 in 10.0 mi East 3.5 mph - 0.06 in   Overcast
4:53 AM 68.0 °F - 66.0 °F 93% 30.00 in 10.0 mi Calm Calm - 0.05 in   Overcast
5:53 AM 68.0 °F - 66.9 °F 96% 30.01 in 10.0 mi SE 4.6 mph - 0.04 in   Overcast
6:53 AM 68.0 °F - 66.9 °F 96% 30.03 in 10.0 mi ESE 3.5 mph - 0.02 in   Overcast
7:53 AM 68.0 °F - 66.9 °F 96% 30.05 in 10.0 mi NNE 6.9 mph - 0.02 in   Overcast
8:53 AM 70.0 °F - 66.9 °F 90% 30.06 in 10.0 mi NE 8.1 mph - 0.02 in   Overcast
9:53 AM 73.0 °F - 66.9 °F 81% 30.08 in 10.0 mi NE 8.1 mph - 0.01 in   Mostly Cloudy
10:53 AM 75.9 °F - 66.0 °F 71% 30.09 in 10.0 mi ENE 10.4 mph - 0.02 in   Overcast
11:53 AM 79.0 °F - 66.0 °F 64% 30.09 in 10.0 mi ENE 10.4 mph - 0.01 in   Mostly Cloudy
12:53 PM 81.0 °F 83.0 °F 66.0 °F 60% 30.07 in 10.0 mi NE 11.5 mph - 0.01 in   Overcast
1:53 PM 82.0 °F 84.1 °F 66.0 °F 58% 30.05 in 10.0 mi ENE 8.1 mph - 0.01 in   Mostly Cloudy
2:53 PM 84.0 °F 86.5 °F 66.9 °F 56% 30.03 in 10.0 mi Variable 5.8 mph - 0.01 in   Mostly Cloudy
3:53 PM 82.9 °F 85.0 °F 66.0 °F 56% 29.99 in 10.0 mi NNE 11.5 mph - 0.01 in   Mostly Cloudy
4:53 PM 81.0 °F 83.0 °F 66.0 °F 60% 29.98 in 10.0 mi North 10.4 mph - 0.01 in   Scattered Clouds
5:53 PM 80.1 °F 81.9 °F 64.9 °F 60% 29.98 in 10.0 mi NNE 11.5 mph - N/A   Clear
6:53 PM 80.1 °F 82.1 °F 66.0 °F 62% 29.99 in 10.0 mi NNE 6.9 mph - 0.01 in   Mostly Cloudy
7:53 PM 77.0 °F - 66.0 °F 69% 30.01 in 10.0 mi NE 6.9 mph - 0.01 in   Mostly Cloudy
8:53 PM 75.0 °F - 66.9 °F 76% 30.04 in 10.0 mi NNE 21.9 mph 27.6 mph N/A   Mostly Cloudy
9:53 PM 70.0 °F - 66.0 °F 87% 30.07 in 10.0 mi ENE 10.4 mph - 0.01 in Rain Light Rain
10:53 PM 70.0 °F - 66.0 °F 87% 30.08 in 10.0 mi East 6.9 mph - 0.00 in   Scattered Clouds
11:53 PM 70.0 °F - 66.0 °F 87% 30.08 in 10.0 mi NE 9.2 mph - N/A   Mostly Cloudy